This is the latest recevied weather packets stored in our database for station/object KB9ZI. If no packets are shown the sender has not sent any weather packets the latest 10 day(s).
| Time | Temp. | Humidity | Pressure | Rain* | Wind** | Luminosity | Snow |
|---|---|---|---|---|---|---|---|
| 1777476359 | 10.56° C | 54% | 1018.9 hPa | 0 mm | - | - | - |
| 1777476159 | 10.56° C | 54% | 1018.8 hPa | 0 mm | - | - | - |
| 1777476039 | 10.56° C | 48% | 1018.7 hPa | 0 mm | - | - | - |
| 1777475918 | 10.56° C | 52% | 1018.8 hPa | 0 mm | - | - | - |
| 1777475854 | 10.56° C | 49% | 1018.8 hPa | 0 mm | - | - | - |
| 1777475739 | 10.56° C | 51% | 1018.8 hPa | 0 mm | - | - | - |
| 1777475552 | 10.56° C | 52% | 1018.7 hPa | 0 mm | - | - | - |
| 1777475433 | 10° C | 50% | 1018.8 hPa | 0 mm | - | - | - |
| 1777475313 | 10° C | 53% | 1018.8 hPa | 0 mm | - | - | - |
| 1777475194 | 10° C | 53% | 1018.9 hPa | 0 mm | - | - | - |
| 1777475130 | 10° C | 51% | 1018.8 hPa | 0 mm | - | - | - |
| 1777474938 | 10° C | 53% | 1018.9 hPa | 0 mm | - | - | - |
| 1777474879 | 10° C | 57% | 1018.9 hPa | 0 mm | - | - | - |
| 1777474695 | 9.44° C | 52% | 1018.9 hPa | 0 mm | - | - | - |
| 1777474574 | 9.44° C | 53% | 1019 hPa | 0 mm | - | - | - |
| 1777474459 | 9.44° C | 53% | 1018.9 hPa | 0 mm | - | - | - |
| 1777474337 | 9.44° C | 56% | 1018.9 hPa | 0 mm | - | - | - |
| 1777474211 | 9.44° C | 55% | 1019 hPa | 0 mm | - | - | - |
| 1777474091 | 9.44° C | 55% | 1018.9 hPa | 0 mm | - | - | - |
| 1777473969 | 9.44° C | 56% | 1019 hPa | 0 mm | - | - | - |
| 1777473850 | 9.44° C | 55% | 1018.9 hPa | 0 mm | - | - | - |
| 1777473725 | 9.44° C | 56% | 1019.1 hPa | 0 mm | - | - | - |
| 1777473603 | 9.44° C | 55% | 1019 hPa | 0 mm | - | - | - |
| 1777473483 | 9.44° C | 55% | 1019.1 hPa | 0 mm | - | - | - |
| 1777473364 | 9.44° C | 59% | 1019.1 hPa | 0 mm | - | - | - |
* Rain latest hour (hover to see other rain measurements)
** Current wind speed in m/s (hover to see current wind gust speed)